Regional Weather Roundup
Issued by NWS

Home | Current Version | Previous Version | Graphics & Text | Print | Product List | Glossary Off
Versions: 1 2 3 4 5 6 7 8 9 10 11 12 13 14 15 16 17 18 19 20 21 22 23 24 25 26 27 28 29 30 31 32 33 34 35 36 37 38 39 40 41 42 43 44 45 46 47 48 49 50

000
ASUS43 KMKX 061510
RWRWI

WISCONSIN REGIONAL WEATHER ROUNDUP
NATIONAL WEATHER SERVICE MILWAUKEE/SULLIVAN WI
900 AM CST SAT FEB 06 2016

NOTE: "FAIR" INDICATES FEW OR NO CLOUDS BELOW 12,000 FEET WITH NO
SIGNIFICANT WEATHER AND/OR OBSTRUCTIONS TO VISIBILITY.

WIZ001-002-006>008-014>016-023>028-061600-
NORTHWEST WISCONSIN

CITY           SKY/WX    TMP DP  RH WIND       PRES   REMARKS
SUPERIOR ARPT  CLOUDY    22  19  86 SW7       30.04F WCI  14
ASHLAND        PTSUNNY   23  18  81 SW8       30.06F WCI  14
HAYWARD        CLOUDY    23  18  81 S8        30.05F WCI  14
SIREN          CLOUDY    24  21  87 SW7       30.08S WCI  16
CUMBERLAND     CLOUDY    23  21  93 SW10      30.08S FOG     WCI  12
RICE LAKE      CLOUDY    25  21  87 SW9       30.10S WCI  15
CHETEK         CLOUDY    25  21  86 SW6       30.10S WCI  18
LADYSMITH      CLOUDY    25  22  91 SW8       30.09F FOG     WCI  16
EAU CLAIRE     CLOUDY    26  20  77 SW8       30.11F WCI  18
MENOMONIE      CLOUDY    28  23  82 S8        30.12F WCI  19
NEW RICHMOND   CLOUDY    25  21  86 S9        30.10F FOG     WCI  15
OSCEOLA        CLOUDY    26  22  87 S9        30.12F WCI  16
$$

WIZ003>005-009-010-017-018-061600-
NORTH CENTRAL WISCONSIN

CITY           SKY/WX    TMP DP  RH WIND       PRES   REMARKS
MANITOWISH WTR CLOUDY    21  19  93 SW10      30.01F WCI  10
ARBOR VITAE    CLOUDY    23  20  89 SW3       30.02F FOG
WOODRUFF       CLOUDY    23  20  89 SW3       30.02F FOG
RHINELANDER    CLOUDY    22  19  89 SW7       30.04F WCI  13
EAGLE RIVER    CLOUDY    21  19  91 SW9       30.02F WCI  11
LAND O LAKES   CLOUDY    22  18  85 W6        30.02F WCI  15
PHILLIPS       CLOUDY    22  19  91 SW8       30.04F WCI  12
TOMAHAWK       CLOUDY    22  19  88 W6        30.06F FOG     WCI  15
MEDFORD        CLOUDY    23  21  94 SW7       30.07F FOG     WCI  14
MERRILL        CLOUDY    23  21  91 W9        30.09F WCI  13
$$

WIZ029-030-035-036-043>047-061600-
CENTRAL WISCONSIN

CITY           SKY/WX    TMP DP  RH WIND       PRES   REMARKS
WAUSAU         CLOUDY    25  21  85 W7        30.08F WCI  17
MOSINEE        CLOUDY    25  23  93 CALM      30.12F
MARSHFIELD     CLOUDY    26  21  81 W7        30.10F HAZE    WCI  18
STEVENS POINT  CLOUDY    23  22  93 W6        30.13F FOG     WCI  16
WAUPACA        CLOUDY    28  24  83 W8        30.16S WCI  20
WAUTOMA        CLOUDY    27  27 100 W9        30.16F WCI  17
WISC RAPIDS    CLOUDY    26  22  84 W6        30.15F WCI  19
CAMP DOUGLAS   CLOUDY    27  27 100 W6        30.15F WCI  20
$$

WIZ011>013-019>022-031-037>040-048>050-061600-
NORTHEAST WISCONSIN

CITY           SKY/WX    TMP DP  RH WIND       PRES   REMARKS
ANTIGO         CLOUDY    22  20  94 W12       30.08S FOG     WCI  10
SHAWANO        CLOUDY    28  23  81 W6        30.14F WCI  21
OCONTO         CLOUDY    26  23  89 SW8       30.14F WCI  17
STURGEON BAY   CLOUDY    25  19  80 W10       30.16S WCI  15
GREEN BAY      CLOUDY    26  22  84 W14       30.16S WCI  14
MANITOWOC      CLOUDY    29  22  75 W15       30.17S WCI  18
APPLETON       CLOUDY    27  21  80 SW8       30.14  WCI  18
CLINTONVILLE   CLOUDY    27  21  80 W7        30.14F WCI  19
OSHKOSH        CLOUDY    28  21  75 VRB7      30.17R WCI  21
$$

WIZ032>034-041-042-053>061-061600-
SOUTHWEST WISCONSIN

CITY           SKY/WX    TMP DP  RH WIND       PRES   REMARKS
LA CROSSE      CLOUDY    29  22  75 SW12      30.17F WCI  19
SPARTA         CLOUDY    28  25  88 SW5       30.16F WCI  23
VIROQUA        CLOUDY    27  26  94 W13       30.15F WCI  16
BOSCOBEL       CLOUDY    30  28  92 SW7       30.21F WCI  23
PRAIRIE DU CHI CLOUDY    30  25  80 SW9       30.21F WCI  22
PLATTEVILLE    CLOUDY    29  27  91 W10       30.21S WCI  20
$$

WIZ056-057-062-063-064-067-068-061600-
SOUTH CENTRAL WISCONSIN

CITY           SKY/WX    TMP DP  RH WIND       PRES   REMARKS
REEDSBURG      CLOUDY    27  25  89 W9        30.17F WCI  18
BARABOO/DELLS  CLOUDY    28  24  85 W7        30.16F WCI  20
LONE ROCK      CLOUDY    29  24  82 W8        30.20F WCI  21
MINERAL POINT  CLOUDY    30  28  93 W13       30.18F WCI  20
MADISON        CLOUDY    28  22  78 VRB5      30.19F WCI  23
MIDDLETON      CLOUDY    30  24  79 SW9       30.20S WCI  21
WATERTOWN      CLOUDY    28  24  86 SW9       30.18F WCI  19
MONROE         CLOUDY    28  27  93 SW10      30.20S WCI  19
JANESVILLE     CLOUDY    30  25  80 SW9       30.22F WCI  22
$$

WIZ051-052-058>065-066-070>072-061600-
SOUTHEAST WISCONSIN

CITY           SKY/WX    TMP DP  RH WIND       PRES   REMARKS
MILWAUKEE      PTSUNNY   30  21  69 SW12      30.21F WCI  20
WAUKESHA       CLOUDY    27  19  74 SW3       30.20F
MILWAUKEE/TIMM CLOUDY    28  19  69 SW9       30.20F WCI  20
RACINE         SUNNY     30  22  72 SW9       30.23F WCI  22
BURLINGTON     CLOUDY    27  21  79 SW10      30.21F WCI  17
KENOSHA        SUNNY     29  22  75 SW12      30.22F WCI  19
FOND DU LAC    CLOUDY    28  21  75 SW8       30.17S WCI  20
SHEBOYGAN      CLOUDY    29  22  75 W14       30.17S WCI  18
WEST BEND      CLOUDY    30  23  74 SW8       30.17F WCI  23
JUNEAU         CLOUDY    27  22  82 SW10      30.19S WCI  17
$$

LSZ147-162-061600-
LAKE SUPERIOR

STATION/POSITION TIME  TEMP    WIND        PRES    WAVE
                       AIR SEA DIR/SP/G            HT/PER
                 (UTC) (F)     (DEG/KT/KT) (MB)    (FT/S)
DEVILS ISLAND    1500   26     230/ 14/ 16 1018.2F
SAXON HARBOR     1400   24                 1017.6
$$

LMZ867-665-643>646-061600-
LAKE MICHIGAN

STATION/POSITION TIME  TEMP    WIND        PRES    WAVE
                       AIR SEA DIR/SP/G            HT/PER
                 (UTC) (F)     (DEG/KT/KT) (MB)    (FT/S)
CHAMBERS ISLAND  1400   26     210/  6/ 12 1020.3S
ALGOMA LAKESHORE 1441          260/ 12/ 17   N/A
KEWAUNEE LAKESHO 1400   27     270/ 13/ 16 1020.3S
SHEBOYGAN LAKESH 1500   30     240/ 13/ 15 1022.8F
PORT WASHINGTON  1400   30     260/ 10/ 12 1023.4S
MILWAUKEE LAKESH 1410   29     250/  8/ 10   N/A
KENOSHA   LAKESH 1500   29     250/ 11/ 15 1023.7F
$$

TC  - TEMPERATURE IN CELSIUS
VSB - VISIBILITY IN STATUTE MILES
WCI - WIND CHILL INDEX
HX  - HEAT INDEX




USA.gov is the U.S. government's official web portal to all federal, state and local government web resources and services.